sat.trackr.live / text

‹ back to catalog

STARLINK-32431

NORAD 61256 · 2024-175P

PAYLOAD ACTIVE UNKNOWN

§ Identity

Operator
Country
US
Launch date
2024-09-25
Launch site
AFWTR
Launch vehicle
Mass (kg)
RCS (m²)

Purposes: comms

External: N2YO · Heavens-Above · Gunter

§ Orbital elements

Epoch: 2026-05-25T04:10:06.888576Z

Period
94.11 min
Inclination
53.1603°
Eccentricity
0.0001089
Mean motion
15.30197948 rev/d
Perigee alt
474.5 km
Apogee alt
476.0 km
Semi-major
6,853.4 km
B*
3.0941e-5
RAAN
198.7791°
Arg perigee
78.1840°
Mean anomaly
281.9283°
Rev number
9,316

§ Raw data

STARLINK-324311 61256U 24175P   26145.17369084  .00000557  00000+0  30941-4 0  99922 61256  53.1603 198.7791 0001089  78.1840 281.9283 15.30197948 93167

JSON: /api/v1/satellites/61256 · /tle

For live sub-satellite position, see the globe view (requires WebGL).

§ Visibility from observer

Set your observer location to see the next 7 days of passes ≥ 10°. The values pass through the URL so the page stays shareable.

No JS? Fill the form by hand. The geolocation button needs JavaScript.